Location: Kelshall
(52.0000°N, 0.0500°W)
Time: 12:19:19
(UTC+00:00)

NOSS 3-1 (C) - Pass Details

Date: 18 September 2020
Orbit: 743 x 1466 km, 63.4° (Epoch: 09 October)

Event Time Altitude Azimuth Distance (km) Brightness Sun altitude
Rises 23:19:08 0° 310° (NW) 3,763 7.2 -36.1°
Reaches altitude 10° 23:21:38 10° 315° (NW) 2,908 6.5 -36.2°
Maximum altitude 23:28:34 58° 35° (NE) 1,393 4.3 -36.3°
Enters shadow 23:28:49 58° 42° (NE) 1,401 4.3 -36.3°
